sat.trackr.live / text

‹ back to catalog

STARLINK-35385

NORAD 65906 · 2025-224AA

PAYLOAD ACTIVE UNKNOWN

§ Identity

Operator
Country
US
Launch date
2025-10-07
Launch site
AFETR
Launch vehicle
Mass (kg)
RCS (m²)

Purposes: comms

External: N2YO · Heavens-Above · Gunter

§ Orbital elements

Epoch: 2026-05-25T00:17:58.126848Z

Period
93.85 min
Inclination
53.1591°
Eccentricity
0.0000813
Mean motion
15.34406943 rev/d
Perigee alt
462.1 km
Apogee alt
463.2 km
Semi-major
6,840.8 km
B*
9.2061e-4
RAAN
15.8392°
Arg perigee
86.8729°
Mean anomaly
273.2367°
Rev number
3,655

§ Raw data

STARLINK-353851 65906U 25224AA  26145.01247832  .00030863  00000+0  92061-3 0  99962 65906  53.1591  15.8392 0000813  86.8729 273.2367 15.34406943 36550

JSON: /api/v1/satellites/65906 · /tle

For live sub-satellite position, see the globe view (requires WebGL).

§ Visibility from observer

Set your observer location to see the next 7 days of passes ≥ 10°. The values pass through the URL so the page stays shareable.

No JS? Fill the form by hand. The geolocation button needs JavaScript.